Location: Park Creek Village Mobile Home Park
(38.2885°N, 122.4714°W)
Time: 04:57:49
(UTC+00:00)

Cosmos 1743 - Pass Details

Date: 14 December 2019
Orbit: 511 x 527 km, 82.6° (Epoch: 25 January)

Event Time Altitude Azimuth Distance (km) Brightness Sun altitude
Rises 14:26:14 0° 168° (SSE) 2,607 6.8 -10.1°
Reaches altitude 10° 14:28:27 10° 159° (SSE) 1,727 6.0 -9.7°
Maximum altitude 14:31:56 36° 92° (E) 828 4.5 -9.1°
Drops below altitude 10° 14:35:27 10° 25° (NNE) 1,745 5.4 -8.5°
Sets 14:37:42 0° 17° (NNE) 2,639 6.2 -8.0°
